RADUGA 6 [-]

Last updated on Wed Jun 28 2023 00:02:57 GMT+0000 (Coordinated Universal Time)

1 11708U 80016A 23177.66949132 -.00000317 00000+0 00000+0 0 9992 2 11708 8.3713 298.0165 0003324 195.4245 127.9832 1.00250102111257

Satellite not in orbit

RADUGA 6 [-]